Change the Weather History Date:

Friday, March 14, 2014

  Actual Average Record
Temperature  
Mean Temperature 53 °F 48 °F  
Max Temperature 57 °F 55 °F 66 °F (1996)
Min Temperature 49 °F 42 °F 29 °F (2002)
Degree Days  
Heating Degree Days 12 17  
Month to date heating degree days 166 238  
Since 1 July heating degree days 3332 3411  
Cooling Degree Days 0 0  
Month to date cooling degree days 0 0  
Year to date cooling degree days 0 0  
Growing Degree Days 2 (Base 50)    
Moisture  
Dew Point 49 °F    
Average Humidity 90    
Maximum Humidity 100    
Minimum Humidity 80    
Precipitation  
Precipitation 0.00 in 0.24 in 2.14 in (1980)
Month to date precipitation 3.56 3.26  
Year to date precipitation 15.20 22.53  
Since 1 July precipitation 24.19 49.63  
Snow  
Snow 0.00 in - - ()
Month to date snowfall 0.0  
Since 1 July snowfall 0.0  
Snow Depth 0.00 in    
Sea Level Pressure  
Sea Level Pressure 30.26 in    
Wind  
Wind Speed 6 mph (West)    
Max Wind Speed 12 mph    
Max Gust Speed 14 mph    
Visibility 8 miles    
Events Fog    
T = Trace of Precipitation, MM = Missing Value Source: NWS Daily Summary

Daily Weather History Graph

Daily Weather History Graph

Search for Another Location

Airport or City:

Trip Planner

Search our weather history database for the weather conditions in past years. The results will help you decide how hot, cold, wet, or windy it might be!

Date:

Astronomy

Mar. 14, 2014 Rise Set
Actual Time 7:30 AM PDT 7:22 PM PDT
Civil Twilight 7:02 AM PDT 7:50 PM PDT
Nautical Twilight 6:30 AM PDT 8:22 PM PDT
Astronomical Twilight 5:57 AM PDT 8:55 PM PDT
Moon 5:49 PM PDT (3/14) 6:14 AM PDT (3/14)
Length of Visible Light 12h 47m
Length of Day
11h 52m
Waxing Gibbous, 96% of the Moon is Illuminated
Mar 14
Waxing Gibbous
Mar 16
Full
Mar 23
Last Quarter
Mar 30
New
Apr 7
First Quarter

Hourly Weather History & Observations

Time (PDT) Temp. Dew Point Humidity Pressure Visibility Wind Dir Wind Speed Gust Speed Precip Events Conditions
12:03 AM 48.9 °F 46.9 °F 93% 30.15 in 5.0 mi WSW 3.5 mph - N/A   Overcast
12:24 AM 50.0 °F 48.0 °F 93% 30.15 in 4.0 mi Calm Calm - N/A   Overcast
12:56 AM 51.1 °F 48.9 °F 92% 30.15 in 7.0 mi East 3.5 mph - N/A   Overcast
1:56 AM 51.1 °F 48.9 °F 92% 30.17 in 7.0 mi South 4.6 mph - N/A   Overcast
2:56 AM 51.1 °F 48.0 °F 89% 30.17 in 8.0 mi SE 9.2 mph - N/A   Mostly Cloudy
3:05 AM 50.0 °F 48.0 °F 93% 30.17 in 9.0 mi SE 6.9 mph - N/A   Scattered Clouds
3:29 AM 50.0 °F 48.0 °F 93% 30.18 in 8.0 mi South 8.1 mph - N/A   Mostly Cloudy
3:39 AM 51.1 °F 48.0 °F 89% 30.17 in 9.0 mi South 9.2 mph - N/A   Mostly Cloudy
3:56 AM 51.1 °F 48.0 °F 89% 30.16 in 9.0 mi SE 10.4 mph - N/A   Mostly Cloudy
4:10 AM 51.1 °F 48.0 °F 89% 30.16 in 10.0 mi SSE 8.1 mph - N/A   Mostly Cloudy
4:56 AM 51.1 °F 48.9 °F 92% 30.19 in 9.0 mi WSW 8.1 mph - N/A   Overcast
5:56 AM 51.1 °F 48.9 °F 92% 30.19 in 5.0 mi SSE 5.8 mph - N/A   Overcast
6:56 AM 51.1 °F 48.9 °F 92% 30.22 in 8.0 mi WSW 4.6 mph - N/A   Overcast
7:56 AM 51.1 °F 48.9 °F 92% 30.24 in 7.0 mi Calm Calm - N/A   Overcast
8:56 AM 52.0 °F 48.9 °F 89% 30.25 in 8.0 mi ESE 5.8 mph - N/A   Overcast
9:04 AM 52.0 °F 48.9 °F 89% 30.25 in 10.0 mi ESE 4.6 mph - N/A   Overcast
9:20 AM 52.0 °F 48.9 °F 89% 30.26 in 10.0 mi SE 3.5 mph - N/A   Overcast
9:56 AM 53.1 °F 48.9 °F 86% 30.27 in 9.0 mi South 5.8 mph - N/A   Mostly Cloudy
10:37 AM 55.0 °F 50.0 °F 83% 30.29 in 10.0 mi Variable 5.8 mph - N/A   Overcast
10:56 AM 54.0 °F 50.0 °F 86% 30.30 in 10.0 mi South 6.9 mph - N/A   Overcast
11:56 AM 53.1 °F 48.9 °F 86% 30.30 in 10.0 mi SW 5.8 mph - N/A   Overcast
12:07 PM 54.0 °F 48.9 °F 83% 30.30 in 10.0 mi West 6.9 mph - N/A   Overcast
12:17 PM 54.0 °F 48.9 °F 83% 30.31 in 10.0 mi Variable 6.9 mph - N/A   Overcast
12:29 PM 54.0 °F 48.9 °F 83% 30.31 in 10.0 mi West 5.8 mph - N/A   Overcast
12:56 PM 55.0 °F 50.0 °F 83% 30.32 in 10.0 mi West 4.6 mph - N/A   Overcast
1:56 PM 55.0 °F 50.0 °F 83% 30.32 in 10.0 mi West 9.2 mph - N/A   Clear
2:56 PM 55.9 °F 51.1 °F 84% 30.30 in 10.0 mi WNW 9.2 mph - N/A   Clear
3:56 PM 57.0 °F 52.0 °F 83% 30.30 in 10.0 mi NW 6.9 mph - N/A   Clear
4:56 PM 55.9 °F 51.1 °F 84% 30.30 in 10.0 mi NNW 6.9 mph - N/A   Clear
5:56 PM 55.0 °F 51.1 °F 86% 30.30 in 10.0 mi NW 6.9 mph - N/A   Partly Cloudy
6:56 PM 53.1 °F 50.0 °F 89% 30.30 in 9.0 mi North 4.6 mph - N/A   Partly Cloudy
7:18 PM 52.0 °F 48.9 °F 89% 30.30 in 5.0 mi NW 4.6 mph - N/A   Mostly Cloudy
7:56 PM 52.0 °F 50.0 °F 93% 30.31 in 9.0 mi NNW 4.6 mph - N/A   Overcast
8:26 PM 52.0 °F 51.1 °F 97% 30.30 in 10.0 mi North 3.5 mph - N/A   Overcast
8:42 PM 52.0 °F 51.1 °F 97% 30.31 in 9.0 mi NW 3.5 mph - N/A   Overcast
8:56 PM 52.0 °F 51.1 °F 97% 30.32 in 10.0 mi NNW 4.6 mph - N/A   Overcast
9:10 PM 52.0 °F 51.1 °F 97% 30.31 in 10.0 mi NNW 4.6 mph - N/A   Overcast
9:46 PM 52.0 °F 50.0 °F 93% 30.33 in 1.8 mi NW 6.9 mph - N/A   Overcast
9:49 PM 52.0 °F 50.0 °F 93% 30.33 in 0.8 mi NW 5.8 mph - N/A   Overcast
9:56 PM 51.1 °F 50.0 °F 96% 30.34 in 0.5 mi NW 5.8 mph - N/A Fog Fog
10:56 PM 50.0 °F 48.9 °F 96% 30.35 in 0.5 mi NW 4.6 mph - N/A Fog Fog
11:42 PM 50.0 °F 48.9 °F 96% 30.34 in 1.0 mi Calm Calm - N/A   Mist
11:56 PM 50.0 °F 48.9 °F 96% 30.33 in 0.2 mi Calm Calm - N/A Fog Fog